CW4427 Weather Reports


time (UTC)temp
F
wind
direction
speed
knots
gust
knots
rain 1hr
in
rain 24hr
in
rain mn
in
humidity
%
barometer
mb
20260505011901 73 196 4.3 10.4 0.00 0.00 0.00 48 1009.6
20260505011401 73 197 4.3 12.2 0.00 0.00 0.00 47 1009.7
20260505010901 73 202 3.5 12.2 0.00 0.00 0.00 47 1009.6
20260505010402 74 258 3.5 9.6 0.00 0.00 0.00 47 1009.6
20260505005901 74 190 2.6 9.6 0.00 0.00 0.00 47 1009.5
20260505004401 74 203 4.3 12.2 0.00 0.00 0.00 46 1009.2
20260505003901 74 194 5.2 12.2 0.00 0.00 0.00 46 1009.2
20260505003401 75 159 6.1 7.8 0.00 0.00 0.00 46 1009.2
20260505002901 75 221 0.9 5.2 0.00 0.00 0.00 46 1009.2
20260505002402 75 179 0.9 7.8 0.00 0.00 0.00 44 1009.1
20260505001901 75 203 3.5 7.8 0.00 0.00 0.00 43 1009.2
20260505001401 76 209 1.7 8.7 0.00 0.00 0.00 43 1009.2
20260505000400 76 246 6.1 13.0 0.00 0.00 0.00 42 1009.3
20260504235900 77 188 2.6 10.4 0.00 0.00 0.00 42 1009.2
20260504235400 77 190 3.5 8.7 0.00 0.00 0.00 41 1009.3
20260504234859 77 184 0.9 8.7 0.00 0.00 0.00 41 1009.3
20260504234359 77 173 0.9 10.4 0.00 0.00 0.00 41 1009.3
20260504233858 77 292 0.9 10.4 0.00 0.00 0.00 40 1009.2
20260504233358 77 225 2.6 8.7 0.00 0.00 0.00 40 1009.3
20260504232858 78 92 1.7 8.7 0.00 0.00 0.00 40 1009.4
20260504232357 78 306 3.5 8.7 0.00 0.00 0.00 39 1009.3
20260504231857 78 277 2.6 11.3 0.00 0.00 0.00 39 1009.3
20260504231356 78 251 2.6 11.3 0.00 0.00 0.00 39 1009.3
20260504230856 78 180 4.3 13.0 0.00 0.00 0.00 40 1009.4
20260504225855 78 74 2.6 13.0 0.00 0.00 0.00 38 1009.6
20260504225355 79 184 2.6 13.9 0.00 0.00 0.00 37 1009.6
20260504224854 79 234 13.0 13.9 0.00 0.00 0.00 37 1009.6
20260504224354 79 201 0.9 12.2 0.00 0.00 0.00 38 1009.5
20260504223854 79 227 5.2 13.9 0.00 0.00 0.00 37 1009.7
20260504223354 80 111 6.1 13.9 0.00 0.00 0.00 38 1009.6
20260504222854 80 179 4.3 13.0 0.00 0.00 0.00 38 1009.5
20260504222354 80 238 5.2 13.0 0.00 0.00 0.00 38 1009.5
20260504221854 80 216 5.2 12.2 0.00 0.00 0.00 38 1009.6
20260504221354 80 192 0.9 12.2 0.00 0.00 0.00 37 1009.5
20260504220354 80 324 0.9 11.3 0.00 0.00 0.00 38 1009.6
20260504214924 81 259 0.9 15.6 0.00 0.00 0.00 36 1009.5
20260504214424 81 221 7.8 15.6 0.00 0.00 0.00 35 1009.6
20260504213854 82 284 3.5 9.6 0.00 0.00 0.00 35 1009.7
20260504213354 82 160 1.7 11.3 0.00 0.00 0.00 37 1009.7
20260504212923 82 106 2.6 11.3 0.00 0.00 0.00 37 1009.6
20260504212423 82 225 2.6 10.4 0.00 0.00 0.00 36 1009.6
20260504211923 82 309 3.5 11.3 0.00 0.00 0.00 37 1009.6
20260504211423 82 201 5.2 11.3 0.00 0.00 0.00 36 1009.8
20260504210853 82 186 2.6 14.8 0.00 0.00 0.00 37 1009.8
20260504205923 82 256 4.3 14.8 0.00 0.00 0.00 39 1009.8
20260504204923 82 223 4.3 10.4 0.00 0.00 0.00 37 1010.0
20260504204422 82 195 7.8 10.4 0.00 0.00 0.00 36 1010.1
20260504203852 82 162 10.4 10.4 0.00 0.00 0.00 39 1010.3
20260504203351 83 271 7.0 12.2 0.00 0.00 0.00 37 1010.3
20260504202922 82 182 3.5 12.2 0.00 0.00 0.00 38 1010.4
20260504202351 83 200 5.2 9.6 0.00 0.00 0.00 40 1010.5
20260504201351 82 193 6.1 13.0 0.00 0.00 0.00 39 1010.8
20260504200921 82 246 1.7 13.0 0.00 0.00 0.00 38 1010.7
20260504200351 82 231 0.9 11.3 0.00 0.00 0.00 38 1010.8
20260504195921 82 212 2.6 15.6 0.00 0.00 0.00 39 1010.7
20260504195421 82 246 7.0 15.6 0.00 0.00 0.00 38 1010.9
20260504194421 83 178 6.1 10.4 0.00 0.00 0.00 37 1011.2
20260504193921 83 296 0.9 10.4 0.00 0.00 0.00 38 1011.1
20260504193351 82 172 6.1 17.4 0.00 0.00 0.00 36 1011.3
20260504192851 83 168 8.7 17.4 0.00 0.00 0.00 36 1011.5
20260504191920 82 200 7.8 18.2 0.00 0.00 0.00 37 1011.5
20260504191420 82 226 3.5 16.5 0.00 0.00 0.00 39 1011.7
20260504190921 83 219 7.0 13.0 0.00 0.00 0.00 40 1011.8
20260504190421 82 267 3.5 13.0 0.00 0.00 0.00 35 1011.8
20260504185921 82 205 0.9 12.2 0.00 0.00 0.00 37 1011.9
20260504185420 82 123 3.5 12.2 0.00 0.00 0.00 37 1012.0
20260504184921 82 167 5.2 13.0 0.00 0.00 0.00 38 1012.1
20260504184421 82 339 4.3 13.9 0.00 0.00 0.00 38 1011.9
20260504183921 82 190 4.3 13.9 0.00 0.00 0.00 37 1012.0
20260504183420 83 196 3.5 10.4 0.00 0.00 0.00 40 1012.2
20260504182921 82 192 3.5 7.8 0.00 0.00 0.00 40 1012.1
20260504182421 81 156 6.1 11.3 0.00 0.00 0.00 41 1012.0
20260504181921 81 198 7.8 11.3 0.00 0.00 0.00 40 1012.1
20260504181421 80 184 5.2 11.3 0.00 0.00 0.00 41 1012.2
20260504180921 79 312 3.5 10.4 0.00 0.00 0.00 41 1012.2
20260504180421 79 182 2.6 16.5 0.00 0.00 0.00 42 1012.4
20260504175920 79 250 0.9 16.5 0.00 0.00 0.00 41 1012.3
20260504175420 80 22 0.9 15.6 0.00 0.00 0.00 40 1012.4
20260504173918 81 201 3.5 13.0 0.00 0.00 0.00 40 1012.7
20260504173418 80 215 0.9 11.3 0.00 0.00 0.00 41 1012.6
20260504172918 80 284 9.6 11.3 0.00 0.00 0.00 41 1012.7
20260504172418 81 267 7.0 13.9 0.00 0.00 0.00 41 1012.9
20260504171417 80 136 3.5 8.7 0.00 0.00 0.00 45 1012.9
20260504170416 80 202 1.7 12.2 0.00 0.00 0.00 44 1013.0
20260504160415 78 208 3.5 7.8 0.00 0.00 0.00 52 1013.7
20260504150915 74 161 3.5 8.7 0.00 0.00 0.00 53 1014.3
20260504150415 74 238 7.0 8.7 0.00 0.00 0.00 54 1014.2
20260504140915 71 223 2.6 8.7 0.00 0.00 0.00 59 1014.3
20260504140415 72 202 2.6 7.0 0.00 0.00 0.00 60 1014.3
20260504130414 66 169 3.5 7.0 0.00 0.00 0.00 67 1013.9
20260504110404 61 167 2.6 6.1 0.00 0.00 0.00 71 1013.3
20260504100358 62 209 4.3 5.2 0.00 0.00 0.00 68 1013.6
20260504081919 62 155 1.7 4.3 0.00 0.00 0.00 66 1013.9
20260504080418 62 186 1.7 6.1 0.00 0.00 0.00 65 1014.0
20260504070412 62 182 1.7 5.2 0.00 0.00 0.00 63 1014.5
20260504050401 61 184 1.7 3.5 0.00 0.00 0.00 62 1015.5
20260504045901 61 188 1.7 3.5 0.00 0.00 0.00 62 1015.4
20260504045400 61 170 0.9 3.5 0.00 0.00 0.00 62 1015.4
20260504044900 61 182 1.7 3.5 0.00 0.00 0.00 62 1015.5
20260504044400 61 175 2.6 5.2 0.00 0.00 0.00 61 1015.5
20260504043859 62 184 2.6 5.2 0.00 0.00 0.00 61 1015.5
20260504043359 62 200 3.5 4.3 0.00 0.00 0.00 61 1015.6
20260504042858 62 171 1.7 3.5 0.00 0.00 0.00 61 1015.5
20260504042357 61 173 1.7 3.5 0.00 0.00 0.00 61 1015.5
20260504041857 61 160 1.7 2.6 0.00 0.00 0.00 61 1015.5
20260504041357 61 209 0.0 2.6 0.00 0.00 0.00 61 1015.5
20260504040856 62 200 0.0 0.0 0.00 0.00 0.00 61 1015.4
20260504040356 62 185 0.0 1.7 0.00 0.00 0.00 61 1015.5
20260504035355 61 194 0.9 4.3 0.00 0.00 0.00 61 1015.5
20260504034855 61 217 1.7 4.3 0.00 0.00 0.00 62 1015.5
20260504034354 61 179 0.0 1.7 0.00 0.00 0.00 61 1015.5
20260504033854 61 188 0.0 0.0 0.00 0.00 0.00 61 1015.5
20260504033423 61 188 0.0 0.0 0.00 0.00 0.00 60 1015.7
20260504032923 61 188 0.0 2.6 0.00 0.00 0.00 60 1015.7
20260504032423 61 188 0.0 2.6 0.00 0.00 0.00 61 1015.7
20260504031922 61 219 0.0 0.9 0.00 0.00 0.00 60 1015.8
20260504025420 60 219 0.0 0.0 0.00 0.00 0.00 61 1015.9
20260504024419 61 219 0.0 0.0 0.00 0.00 0.00 60 1015.7
20260504023918 61 219 0.0 0.0 0.00 0.00 0.00 60 1015.7
20260504022918 61 219 0.0 0.0 0.00 0.00 0.00 60 1015.6
20260504022417 61 219 0.0 0.0 0.00 0.00 0.00 61 1015.6
20260504021916 62 219 0.0 0.0 0.00 0.00 0.00 60 1015.7
20260504021416 62 219 0.0 0.0 0.00 0.00 0.00 60 1015.7
20260504020414 63 219 0.0 0.0 0.00 0.00 0.00 57 1015.6
20260504015915 63 219 0.0 0.0 0.00 0.00 0.00 58 1015.6
20260504015414 63 219 0.0 0.0 0.00 0.00 0.00 57 1015.4
20260504014913 63 219 0.0 0.0 0.00 0.00 0.00 57 1015.4
20260504014413 63 219 0.0 0.0 0.00 0.00 0.00 59 1015.3
20260504013912 64 219 0.0 0.0 0.00 0.00 0.00 58 1015.3
20260504013412 64 219 0.0 0.0 0.00 0.00 0.00 56 1015.2
20260504012911 65 219 0.0 0.0 0.00 0.00 0.00 55 1015.3
20260504012411 65 219 0.0 0.0 0.00 0.00 0.00 51 1015.2